London City, United Kingdom

5:06 AM BST on August 21, 2017 (GMT +0100)
London City

Weather History for EGLC - February, 2014

Change the Weather History Date:

Monday, February 10, 2014

  Actual Average Record
Temperature  
Mean Temperature 44 °F -  
Max Temperature 50 °F 46 °F 55 °F (2008)
Min Temperature 39 °F 40 °F 26 °F (2012)
Degree Days  
Heating Degree Days 20    
Moisture  
Dew Point 38 °F    
Average Humidity 81    
Maximum Humidity 93    
Minimum Humidity 62    
Precipitation  
Precipitation 0.00 in - - ()
Sea Level Pressure  
Sea Level Pressure 29.32 in    
Wind  
Wind Speed 6 mph ()    
Max Wind Speed 17 mph    
Max Gust Speed -    
Visibility 6.2 miles    
Events Rain    
Averages and records for this station are not official NWS values.
T = Trace of Precipitation, MM = Missing Value Source: Averaged Metar Reports

Daily Weather History Graph

Daily Weather History Graph

Search for Another Location

Airport or City:

Trip Planner

Search our weather history database for the weather conditions in past years. The results will help you decide how hot, cold, wet, or windy it might be!

Date:

Astronomy

Feb. 10, 2014 Rise Set
Actual Time 7:23 AM GMT 5:05 PM GMT
Civil Twilight 6:48 AM GMT 5:40 PM GMT
Nautical Twilight 6:08 AM GMT 6:20 PM GMT
Astronomical Twilight 5:30 AM GMT 6:58 PM GMT
Moon 1:09 PM GMT (2/10) 4:17 AM GMT (2/10)
Length of Visible Light 10h 52m
Length of Day
9h 42m
Waxing Gibbous, 83% of the Moon is Illuminated
Feb 10
Waxing Gibbous
Feb 14
Full
Feb 22
Last Quarter
Mar 1
New
Mar 8
First Quarter

Hourly Weather History & Observations

Time (GMT) Temp. Windchill Dew Point Humidity Pressure Visibility Wind Dir Wind Speed Gust Speed Precip Events Conditions
12:20 AM 42.8 °F 40.1 °F 35.6 °F 76% 29.27 in 6.2 mi SSW 4.6 mph - N/A   Unknown
12:50 AM 42.8 °F 40.1 °F 35.6 °F 76% 29.27 in 6.2 mi SW 4.6 mph - N/A Rain Light Rain
1:20 AM 42.8 °F 40.1 °F 37.4 °F 81% 29.27 in 6.2 mi WSW 4.6 mph - N/A Rain Light Rain Showers
1:50 AM 42.8 °F - 37.4 °F 81% 29.27 in 6.2 mi SE 2.3 mph - N/A Rain Light Rain Showers
2:20 AM 41.0 °F 37.1 °F 37.4 °F 87% 29.24 in 6.2 mi East 5.8 mph - N/A   Light Drizzle
2:50 AM 41.0 °F 37.1 °F 37.4 °F 87% 29.24 in 6.2 mi SSE 5.8 mph - N/A Rain Rain
3:20 AM 41.0 °F 38.0 °F 37.4 °F 87% 29.24 in 6.2 mi ESE 4.6 mph - N/A Rain Rain
3:50 AM 41.0 °F 37.1 °F 37.4 °F 87% 29.24 in 6.2 mi ESE 5.8 mph - N/A Rain Light Rain Showers
4:20 AM 41.0 °F 38.0 °F 37.4 °F 87% 29.24 in 6.2 mi ESE 4.6 mph - N/A Rain Rain Showers
4:50 AM 41.0 °F 37.1 °F 37.4 °F 87% 29.24 in 6.2 mi SE 5.8 mph - N/A Rain Rain Showers
5:20 AM 41.0 °F 39.0 °F 37.4 °F 87% 29.24 in 6.2 mi ESE 3.5 mph - N/A   Overcast
5:50 AM 41.0 °F 38.0 °F 37.4 °F 87% 29.24 in 6.2 mi East 4.6 mph - N/A   Overcast
6:20 AM 39.2 °F 34.2 °F 37.4 °F 93% 29.24 in 6.2 mi ESE 6.9 mph - N/A   Partly Cloudy
6:50 AM 41.0 °F 35.2 °F 37.4 °F 87% 29.24 in 6.2 mi ESE 9.2 mph - N/A   Scattered Clouds
7:20 AM 41.0 °F 36.4 °F 37.4 °F 87% 29.24 in 6.2 mi ESE 6.9 mph - N/A   Mostly Cloudy
7:50 AM 41.0 °F 39.0 °F 39.2 °F 93% 29.24 in 6.2 mi East 3.5 mph - N/A   Mostly Cloudy
8:20 AM 41.0 °F 38.0 °F 39.2 °F 93% 29.27 in 6.2 mi East 4.6 mph - N/A   Mostly Cloudy
8:50 AM 42.8 °F 40.1 °F 39.2 °F 87% 29.27 in 6.2 mi East 4.6 mph - N/A   Mostly Cloudy
9:20 AM 42.8 °F 41.1 °F 39.2 °F 87% 29.27 in 6.2 mi East 3.5 mph - N/A   Scattered Clouds
9:50 AM 42.8 °F - 41.0 °F 93% 29.27 in 6.2 mi Variable 2.3 mph - N/A   Mostly Cloudy
10:20 AM 44.6 °F 43.1 °F 41.0 °F 87% 29.27 in 6.2 mi Variable 3.5 mph - N/A   Mostly Cloudy
10:50 AM 44.6 °F - 41.0 °F 87% 29.27 in 6.2 mi Variable 2.3 mph - N/A   Mostly Cloudy
11:20 AM 44.6 °F 41.4 °F 41.0 °F 87% 29.30 in 6.2 mi SSW 5.8 mph - N/A Rain Light Rain Showers
11:50 AM 44.6 °F 41.4 °F 41.0 °F 87% 29.30 in 6.2 mi South 5.8 mph - N/A   Mostly Cloudy
12:20 PM 46.4 °F 42.9 °F 42.8 °F 87% 29.30 in 6.2 mi SW 6.9 mph - N/A   Mostly Cloudy
12:50 PM 48.2 °F - 42.8 °F 82% 29.27 in 6.2 mi SW 8.1 mph - N/A   Scattered Clouds
1:20 PM 48.2 °F - 41.0 °F 76% 29.27 in 6.2 mi West 6.9 mph - N/A   Partly Cloudy
1:50 PM 48.2 °F - 39.2 °F 71% 29.27 in 6.2 mi SW 5.8 mph - N/A   Partly Cloudy
2:20 PM 50.0 °F - 37.4 °F 62% 29.27 in 6.2 mi SW 8.1 mph - N/A   Partly Cloudy
2:50 PM 42.8 °F 34.8 °F 39.2 °F 87% 29.30 in 6.2 mi West 17.3 mph - N/A Rain Light Rain Showers
3:20 PM 44.6 °F 40.7 °F 39.2 °F 81% 29.30 in 6.2 mi WSW 6.9 mph - N/A   Partly Cloudy
3:50 PM 44.6 °F 40.2 °F 37.4 °F 76% 29.30 in 6.2 mi West 8.1 mph - N/A   Partly Cloudy
4:20 PM 44.6 °F 39.7 °F 37.4 °F 76% 29.33 in 6.2 mi West 9.2 mph - N/A   Partly Cloudy
4:50 PM 44.6 °F 39.2 °F 37.4 °F 76% 29.33 in 6.2 mi West 10.4 mph - N/A   Partly Cloudy
5:20 PM 46.4 °F 39.5 °F 35.6 °F 66% 29.36 in 6.2 mi West 17.3 mph - N/A   Partly Cloudy
5:50 PM 44.6 °F 38.1 °F 37.4 °F 76% 29.39 in 6.2 mi West 13.8 mph - N/A   Scattered Clouds
6:20 PM 44.6 °F 37.8 °F 35.6 °F 71% 29.39 in 6.2 mi West 15.0 mph - N/A   Scattered Clouds
6:50 PM 44.6 °F 38.4 °F 37.4 °F 76% 29.42 in 6.2 mi West 12.7 mph - N/A   Scattered Clouds
7:20 PM 44.6 °F 38.8 °F 37.4 °F 76% 29.42 in 6.2 mi WNW 11.5 mph - N/A   Scattered Clouds
7:50 PM 42.8 °F 35.1 °F 35.6 °F 76% 29.44 in 6.2 mi WNW 16.1 mph - N/A   Scattered Clouds
8:20 PM 42.8 °F 35.1 °F 35.6 °F 76% 29.44 in 6.2 mi WNW 16.1 mph - N/A   Mostly Cloudy
8:50 PM 42.8 °F 35.4 °F 33.8 °F 70% 29.47 in 6.2 mi West 15.0 mph - N/A   Scattered Clouds
9:20 PM 42.8 °F 34.8 °F 33.8 °F 70% 29.50 in 6.2 mi West 17.3 mph - N/A   Mostly Cloudy
9:50 PM 42.8 °F 36.2 °F 35.6 °F 76% 29.50 in 6.2 mi West 12.7 mph - N/A   Overcast
10:20 PM 41.0 °F 33.9 °F 33.8 °F 76% 29.53 in 6.2 mi West 12.7 mph - N/A   Scattered Clouds
10:50 PM 41.0 °F 34.7 °F 33.8 °F 76% 29.53 in 6.2 mi West 10.4 mph - N/A   Unknown
11:20 PM 41.0 °F 34.3 °F 33.8 °F 76% 29.53 in 6.2 mi WSW 11.5 mph - N/A   Unknown
11:50 PM 41.0 °F 33.9 °F 33.8 °F 76% 29.53 in 6.2 mi WSW 12.7 mph - N/A   Unknown